Location: Marengo
(51.4813°N, 109.7825°W)
Time: 23:36:57
(UTC+00:00)

Envisat - Pass Details

Date: 24 January 2022
Orbit: 764 x 765 km, 98.2° (Epoch: 22 May)

Event Time Altitude Azimuth Distance (km) Brightness Sun altitude
Rises 10:32:24 0° 32° (NNE) 3,242 6.9 -42.1°
Reaches altitude 10° 10:37:01 10° 70° (ENE) 2,308 6.1 -41.5°
Maximum altitude 10:38:05 11° 83° (E) 2,265 6.0 -41.3°
Drops below altitude 10° 10:39:09 10° 95° (E) 2,305 6.0 -41.2°
Sets 10:43:43 0° 133° (SE) 3,223 6.5 -40.5°
